Temp
-4 -4 -4 -3 -4 -4 -4 -4 -4 -4 -4 -4 -5 -5 -5 -5 -4 -4 -4 -4 -4 -4
-4 -4 -4 -4 -4 -4 -4 -4 -5 -5 -5 -5 -5 -5 -5 -5 -5 -5 -5 -5 -4 -4
-5 -5 -5 -5 -5 -5 -5 -5 -5 -5 -5 -5 -6 -6 -6 -5 -5 -5 -5 -5 -5 -5
-5 -5 -5 -5 -5 -5 -6 -6 -6 -6 -6 -6 -6 -6 -6 -6 -6 -6 -6 -5 -5 -6
-6 -6 -6 -6 -6 -6 -6 -6 -6 -7 -7 -6 -6 -6 -6 -6 -6 -6 -6 -6 -6 -6
-6 -6 -7 -7 -7 -7 -7 -7 -7 -7 -7 -7 -7 -7 -7 -7 -7 -7 -7 -7 -6 -6
-7 -7 -7 -7 -7 -7 -7 -8 -7 -7 -7 -7 -7 -7 -7 -7 -7 -7 -6 -6 -6 -6
-8 -8 -8 -8 -8 -8 -8 -8 -8 -8 -8 -8 -8 -7 -7 -7 -7 -7 -6 -6 -5 -5
-8 -8 -8 -8 -8 -8 -8 -8 -8 -8 -8 -8 -8 -7 -7 -6 -6 -5 -5 -5 -4 -4
-9 -9 -8 -9 -9 -8 -8 -8 -9 -8 -8 -8 -8 -7 -6 -6 -6 -5 -5 -5 -4 -4
-9 -9 -9 -9 -9 -9 -9 -9 -9 -9 -8 -8 -8 -7 -6 -5 -5 -5 -5 -4 -4 -3
-10 -10 -10 -10 -10 -10 -9 -9 -9 -9 -8 -8 -7 -7 -6 -5 -5 -4 -4 -4 -4 -3
-11 -11 -11 -11 -10 -10 -10 -10 -9 -8 -8 -8 -7 -6 -5 -5 -4 -4 -4 -3 -4 -3
-11 -12 -11 -11 -11 -10 -10 -9 -9 -9 -8 -7 -6 -5 -4 -4 -4 -4 -4 -4 -4 -4
Height
867 865 863 859 856 853 849 845 842 839 836 832 828 824 823 818 816 812 808 803 799 795
864 861 859 856 853 850 846 842 839 835 831 827 823 819 816 812 808 805 801 796 791 787
859 857 855 852 849 845 841 837 833 829 825 820 816 812 809 805 801 796 792 788 784 779
855 853 851 848 845 840 836 832 827 823 818 814 809 806 801 797 792 788 784 780 775 771
852 850 847 844 840 837 832 828 823 818 813 806 802 797 792 788 785 780 775 771 767 763
849 846 843 840 836 831 826 822 817 810 805 801 796 788 785 781 776 772 767 763 758 753
846 843 839 835 831 827 822 816 811 805 800 793 787 781 776 773 768 762 757 752 746 739
843 839 836 831 826 821 816 811 805 800 795 787 780 775 770 765 758 750 743 737 730 724
840 837 832 827 822 816 810 805 801 793 786 778 771 767 763 755 747 739 733 725 718 712
837 833 828 823 816 810 805 801 793 786 781 772 764 758 752 745 738 729 721 713 705 698
833 828 823 817 812 807 801 794 786 781 775 768 756 750 743 736 728 719 710 701 692 685
829 824 817 813 808 802 794 788 782 774 767 761 749 742 735 727 717 708 698 689 682 673
825 818 814 809 804 796 788 784 779 770 761 753 743 734 727 719 709 697 688 679 669 663
818 814 810 805 798 791 785 778 771 765 754 746 739 729 720 712 701 691 679 669 660 653
Wind_Speed
8 10 12 13 15 16 17 18 20 22 22 23 23 24 25 26 27 27 27 28 28 29
10 11 13 15 16 17 19 20 22 23 24 24 25 25 26 27 28 28 29 29 29 29
12 13 14 16 18 20 21 22 24 25 25 26 26 26 27 28 28 29 30 30 31 31
13 15 16 18 19 21 22 24 25 26 27 27 28 29 29 30 31 32 32 31 32 33
14 16 17 19 21 21 23 25 26 27 28 28 30 30 29 31 32 32 33 32 33 34
15 17 18 20 21 23 24 26 27 27 28 30 31 30 31 32 32 33 33 33 34 34
16 18 19 21 22 24 25 27 28 28 30 30 31 31 31 31 31 32 34 37 38 40
17 18 20 22 23 24 25 26 27 29 29 30 30 30 30 32 34 37 39 40 40 38
17 19 21 23 25 24 25 26 27 28 29 30 30 31 34 35 36 35 36 38 39 40
17 20 22 23 24 25 26 27 27 28 29 32 32 33 34 36 37 38 39 40 40 39
18 21 23 23 24 25 25 26 28 29 31 33 35 34 35 37 38 39 39 40 39 39
19 22 23 24 24 25 25 28 29 29 32 33 37 36 36 38 38 36 39 38 34 40
19 20 22 23 24 25 25 28 29 31 31 32 35 37 37 39 36 36 34 37 32 36
20 20 20 23 24 25 28 29 29 30 32 33 31 36 37 39 37 35 35 33 32 33
Wind_Direction
309 312 311 310 310 309 305 303 304 303 303 302 302 299 297 294 290 287 284 282 279 278
319 316 315 314 311 305 305 305 304 303 302 301 299 296 293 290 286 284 283 282 280 276
322 321 317 312 309 309 309 307 305 305 304 301 298 296 292 288 286 284 282 280 279 279
324 320 316 312 311 310 308 308 306 304 302 301 300 295 292 289 287 284 283 281 279 277
320 317 314 312 311 310 307 306 303 303 302 301 296 294 293 291 288 286 284 283 281 279
317 316 313 312 310 309 307 306 304 303 302 299 296 298 295 291 289 286 284 282 280 278
317 316 312 310 310 308 308 304 305 304 298 297 299 298 293 291 290 288 284 280 275 270
317 314 312 310 309 308 306 306 304 301 301 302 300 296 294 293 289 286 282 278 275 270
317 313 311 312 311 312 310 307 304 304 306 303 300 297 300 300 294 294 295 291 286 283
313 313 313 313 314 315 311 307 309 311 309 305 303 303 306 306 304 296 292 289 287 285
316 315 316 319 316 313 312 313 316 312 309 305 304 307 311 310 305 296 292 288 284 286
320 317 322 317 314 314 317 317 315 312 307 305 306 313 315 311 306 300 294 293 292 291
319 321 315 313 315 316 318 312 313 310 310 309 306 313 315 316 314 304 308 302 298 302
327 320 316 316 320 319 316 311 309 309 313 312 313 316 320 321 318 315 313 313 309 305